[keps] orb12236.2l.amsat
Ray Hoad
ray.hoad at mypbmail.com
Thu Aug 23 21:19:59 PDT 2012
SB KEPS @ AMSAT $ORB12236.N
2Line Orbital Elements 12236.AMSAT
HR AMSAT ORBITAL ELEMENTS FOR AMATEUR SATELLITES IN NASA FORMAT
FROM WA5QGD FORT WORTH,TX August 23, 2012
Send SUBSCRIBE KEPS/UNSUBSCRIBE KEPS to majordomo at amsat.org only
BID: ORB12236.N
DECODE 2-LINE ELSETS WITH THE FOLLOWING KEY:
1 AAAAAU 00 0 0 BBBBB.BBBBBBBB .CCCCCCCC 00000-0 00000-0 0 DDDZ
2 AAAAA EEE.EEEE FFF.FFFF GGGGGGG HHH.HHHH III.IIII JJ.JJJJJJJJKKKKKZ
KEY: A-CATALOGNUM B-EPOCHTIME C-DECAY D-ELSETNUM E-INCLINATION F-RAAN
G-ECCENTRICITY H-ARGPERIGEE I-MNANOM J-MNMOTION K-ORBITNUM Z-CHECKSUM
TO ALL RADIO AMATEURS BT
AO-07
1 07530U 74089B 12235.62333453 -.00000027 00000-0 10000-3 0 4624
2 07530 101.4074 230.2806 0011764 150.9096 209.2634 12.53590864728370
FO-29
1 24278U 96046B 12236.84898560 .00000052 00000-0 90069-4 0 9209
2 24278 098.5862 328.6599 0350212 214.0142 143.8100 13.52987067791105
SO-33
1 25509U 98061B 12235.64685943 .00000218 00000-0 33175-4 0 03070
2 25509 031.4332 317.5700 0351918 064.9355 298.7371 14.28802071722169
RS-22
1 27939U 03042A 12236.79431604 .00000277 00000-0 61168-4 0 6581
2 27939 097.8082 074.1316 0014555 053.2730 306.9814 14.64100345475777
VO-52
1 28650U 05017B 12235.64792800 .00000891 00000-0 11489-3 0 01898
2 28650 097.5928 263.3452 0026245 180.0854 180.0366 14.83111344394823
HO-68
1 36122U 09072B 12236.78598189 -.00000044 00000-0 00000 0 0 7650
2 36122 100.3547 294.7511 0007239 317.1201 042.9343 13.16297551129288
UO-11
1 14781U 84021B 12236.84202552 -.00000012 00000-0 53190-5 0 9568
2 14781 097.9487 295.7503 0009227 166.4177 193.7263 14.80525979529940
AO-16
1 20439U 90005D 12236.86059347 .00000075 00000-0 43905-4 0 5418
2 20439 098.4344 178.3536 0010615 324.2630 035.7843 14.32075557179688
LO-19
1 20442U 90005G 12235.89533376 .00000073 00000-0 42565-4 0 4703
2 20442 098.4000 180.1884 0011424 317.6840 042.3455 14.32292306179738
AO-27
1 22825U 93061C 12236.72192828 .00000054 00000-0 38121-4 0 1799
2 22825 098.5753 178.4983 0009404 082.2916 277.9335 14.29478856986129
IO-26
1 22826U 93061D 12235.87005897 .00000053 00000-0 37456-4 0 09454
2 22826 098.5714 178.0129 0009905 077.8796 282.3493 14.29753838986139
GO-32
1 25397U 98043D 12235.62038030 -.00000036 00000-0 22658-5 0 08565
2 25397 098.3699 211.0828 0002252 084.8620 275.2828 14.23287490733471
NO-44
1 26931U 01043C 12235.70346304 .00000182 00000-0 10285-3 0 1182
2 26931 067.0546 308.9058 0007015 255.4364 104.5960 14.29822747568758
SO-50
1 27607U 02058C 12236.68071997 .00000099 00000-0 36639-4 0 8457
2 27607 064.5570 089.5741 0079082 234.9822 124.3826 14.72466120519904
CO-55
1 27844U 03031E 12235.60047698 .00000151 00000-0 89884-4 0 4459
2 27844 098.7044 243.0183 0010514 035.2197 324.9669 14.21058373474321
CO-57
1 27848U 03031J 12235.54540910 .00000134 00000-0 82132-4 0 03977
2 27848 098.7125 242.3272 0010515 040.9230 319.2734 14.20805728474253
AO-51
1 28375U 04025K 12235.46320363 .00000118 00000-0 48238-4 0 03483
2 28375 098.1542 197.6807 0082651 199.9408 159.8540 14.40977094428311
CP3
1 31129U 07012N 12235.59911891 .00000413 00000-0 10397-3 0 2446
2 31129 097.8815 239.4730 0099766 276.8871 082.0990 14.53173235283623
CO-65
1 32785U 08021C 12235.63439072 .00000474 00000-0 64447-4 0 03957
2 32785 097.7917 295.0985 0014130 199.7885 160.2765 14.83120564233617
PRISM
1 33493U 09002B 12236.75256217 .00001404 00000-0 17425-3 0 28
2 33493 098.1797 018.9720 0019946 078.7813 281.5640 14.84180243193773
SOHLA-1
1 33496U 09002E 12235.87943218 .00000133 00000-0 30395-4 0 08238
2 33496 098.1083 347.1944 0006442 179.4633 180.6572 14.70018448192049
SO-67
1 35870U 09049F 12236.87574255 .00002461 00000-0 10352-3 0 2600
2 35870 097.2272 270.2455 0000982 352.7223 119.4886 15.24295245162928
TISAT-1
1 36799U 10035E 12236.72038508 .00000863 00000-0 11521-3 0 2779
2 36799 098.0590 313.5441 0013854 317.9846 042.0307 14.82149561114493
STUDSAT
1 36801U 10035G 12235.93219043 .00002612 00000-0 31366-3 0 04753
2 36801 098.0706 313.7784 0011574 304.4525 055.5587 14.84847153114426
FO-69
1 37227U 0 12236.28802780 .00000209 00000-0 37403-4 0 02636
2 37227 071.9704 163.8824 0017788 199.8949 160.1525 14.77138948046005
FO-70
1 37380U 0 12236.30491898 .00000210 00000-0 37768-4 0 02707
2 37380 071.9726 164.4901 0018285 196.7366 163.3194 14.76889470045899
ALMASAT-1
1 38078U 12006B 12236.78449185 .00011231 00000-0 31397-3 0 5029
2 38078 069.4882 163.9163 0749453 164.1982 198.3955 14.11220031 27089
XATCOBEO
1 38082U 12006F 12236.81116666 .00029159 00000-0 70614-3 0 4968
2 38082 069.4868 160.0099 0716663 162.0730 200.7179 14.20950886 27184
NOAA-10
1 16969U 86073A 12235.95538437 .00000057 00000-0 40545-4 0 00470
2 16969 098.5771 263.8108 0012978 042.0623 318.1551 14.27570991349399
NOAA-11
1 19531U 88089A 12235.75575558 -.00000182 00000-0 -71663-4 0 00319
2 19531 098.7306 319.5093 0011818 036.8027 323.3954 14.14976599233922
NOAA-12
1 21263U 91032A 12235.93863517 .00000020 00000-0 27377-4 0 05284
2 21263 098.7268 257.2837 0014254 011.2040 348.9454 14.25513023106060
MET-3/5
1 21655U 91056A 12236.83642450 .00000132 00000-0 31100-3 0 4872
2 21655 082.5543 104.4039 0014056 149.7291 210.4646 13.17038201 10794
MET-2/21
1 22782U 93055A 12236.76747184 .00000096 00000-0 73100-4 0 5076
2 22782 082.5517 338.8909 0021641 326.7129 033.2681 13.83688709958519
OKEAN-4
1 23317U 94066A 12235.92595690 .00000567 00000-0 65104-4 0 00134
2 23317 082.5437 328.8071 0022764 128.3514 231.9752 14.83902877964705
NOAA-14
1 23455U 94089A 12235.92130433 .00000003 00000-0 24467-4 0 00178
2 23455 098.8256 318.5749 0010069 122.4332 237.7813 14.13866627910228
NOAA-15
1 25338U 98030A 12235.96731380 .00000074 00000-0 50480-4 0 03751
2 25338 098.6957 222.2662 0009624 276.4529 083.5560 14.25108618742360
RESURS
1 25394U 98043A 12236.91244704 -.00000011 00000-0 12896-4 0 1672
2 25394 098.3264 221.6042 0002397 054.0331 306.1071 14.24292454734044
FENGYUN1
1 25730U 99025A 12236.92776633 .00000376 00000-0 23889-3 0 6782
2 25730 098.8498 194.7487 0018162 164.5244 195.6478 14.09712036684156
OKEAN-0
1 25860U 99039A 12235.91132474 .00000198 00000-0 37425-4 0 07165
2 25860 097.9431 197.2169 0001825 057.4495 302.6889 14.74270187704403
NOAA-16
1 26536U 00055A 12235.89378853 .00000257 00000-0 16316-3 0 08641
2 26536 099.0877 279.0297 0009810 254.9819 105.0254 14.12771750614458
NOAA-17
1 27453U 02032A 12235.75271775 .00000107 00000-0 63709-4 0 08099
2 27453 098.3330 259.4192 0011112 326.0892 033.9570 14.24472389528238
NOAA-18
1 28654U 05018A 12235.69008965 -.00000071 00000-0 -13770-4 0 02923
2 28654 099.0533 194.3533 0014100 331.9003 028.1403 14.11686914373944
NOAA-19
1 33591U 09005A 12235.71292302 -.00000107 00000-0 -34925-4 0 04817
2 33591 098.8663 174.6871 0013604 189.8622 170.2280 14.11373225182399
HUBBLE
1 20580U 90037B 12234.94550393 .00001009 00000-0 61377-4 0 577
2 20580 028.4707 073.1580 0003091 042.7334 317.3482 15.02700656 24630
ISS
1 25544U 98067A 12236.87676541 .00001686 00000-0 37485-4 0 1666
2 25544 051.6470 144.4435 0014946 353.5533 123.2691 15.50059634788545
CO-58
1 28895U 05043F 12235.59870461 .00000521 00000-0 11579-3 0 02590
2 28895 097.9058 098.9223 0016857 306.1371 053.8293 14.60712224363352
FALCON
1 30776U 07006E 12235.40633900 .00001876 00000-0 12230-3 0 04307
2 30776 035.4352 232.2498 0002603 261.4381 098.6043 15.07969461300251
MAST
1 31126U 07012K 12235.96555361 .00000253 00000-0 66876-4 0 05528
2 31126 097.8745 243.1648 0092498 262.6241 096.4438 14.54230109283970
CAPE1
1 31130U 07012P 12236.53898561 .00000434 00000-0 10918-3 0 5491
2 31130 097.8837 240.0525 0100181 274.4988 084.4767 14.53034513283551
COMPASS
1 32787U 08021E 12236.82730754 .00000953 00000-0 11999-3 0 3890
2 32787 097.7943 296.6546 0014991 194.6164 165.4563 14.84225989233843
AAUSAT2
1 32788U 08021F 12236.84924244 .00000639 00000-0 81884-4 0 3827
2 32788 097.7955 297.0956 0014394 194.0356 166.0449 14.84563105233879
DO-64
1 32789U 08021G 12235.74796000 .00002419 00000-0 28108-3 0 03998
2 32789 097.8061 298.3027 0014420 194.5780 165.5014 14.86208810233769
CO-66
1 32791U 08021J 12236.70957796 .00000387 00000-0 53290-4 0 3802
2 32791 097.7941 296.2253 0015259 195.4389 164.6356 14.83600322233751
RS-30
1 32953U 08025A 12236.57793380 .00000010 00000-0 00000 0 0 792
2 32953 082.4973 253.2301 0019158 156.7697 203.4255 12.43027021192935
PHARMSAT
1 35002U 09028B 12226.86484473 .07728342 73476-5 57159-3 0 789
2 35002 040.4341 050.6671 0012079 300.9773 059.0492 16.39309245183554
METEOR-M
1 35865U 09049A 12236.70431918 -.00000030 00000-0 59842-5 0 7104
2 35865 098.6486 289.7427 0001878 201.7410 158.3685 14.21867469152190
RS-38
1 35869U 09049E 12236.78572638 .00000024 00000-0 30486-4 0 7127
2 35869 098.6436 289.8069 0004006 208.8547 151.2408 14.22083210152221
JUGNU
1 37839U 11058B 12235.52537067 .00000620 00000-0 19019-3 0 2111
2 37839 019.9645 316.3534 0018474 234.0310 125.8295 14.12074641 44637
SRMSAT
1 37841U 11058D 12235.52871304 .00000264 00000-0 00000 0 0 2120
2 37841 019.9758 322.5024 0012181 199.4425 160.5515 14.10155568 44567
RAX-2
1 37853U 11061D 12235.90162591 .00003179 00000-0 25725-3 0 02651
2 37853 101.7092 306.4737 0246008 160.6939 200.3791 14.80427444044279
AUBIESAT
1 37854U 11061E 12235.90593738 .00003818 00000-0 30152-3 0 02653
2 37854 101.7103 306.8214 0247095 159.9049 201.2096 14.80857057044261
HRBE
1 37855U 11061F 12236.87258340 .00003458 00000-0 27490-3 0 2626
2 37855 101.7121 308.1609 0247515 157.3294 203.9055 14.80693995 44405
RS-39
1 38051U 11062C 12236.75833906 .00005254 00000-0 21876-3 0 6352
2 38051 051.6400 197.6055 0012444 282.5553 150.3155 15.25303814 32280
E-STAR
1 38079U 12006C 12236.87083318 .00024307 00000-0 59536-3 0 4473
2 38079 069.4842 160.5306 0726057 162.4489 200.3350 14.18748955 27176
GOLIAT
1 38085U 12006J 12236.76963504 .00022622 00000-0 54831-3 0 4170
2 38085 069.4860 161.2695 0732153 162.9033 199.8216 14.17679282 27141
HORYU-2
1 38340U 12025D 12236.34806745 .00000933 00000-0 16341-3 0 1051
2 38340 098.1782 176.2431 0013891 115.8245 244.4474 14.70104122 14340
RS-40
1 38736U 12041D 12235.56880548 .00000010 00000-0 00000-0 0 00297
2 38736 082.4819 341.3085 0017679 258.4196 101.4898 12.42645990003152
/EX
More information about the Keps
mailing list